Location: Casteau
(50.5142°N, 4.0161°E)
Time: 19:42:02
(UTC+00:00)

Tiros 1 - Pass Details

Date: 04 August 2021
Orbit: 630 x 663 km, 48.4° (Epoch: 28 September)

Event Time Altitude Azimuth Distance (km) Brightness Sun altitude
Rises 19:19:59 0° 266° (W) 2,984 11.7 -0.4°
Reaches altitude 10° 19:22:21 10° 264° (W) 2,068 10.8 -0.7°
Maximum altitude 19:27:06 69° 181° (S) 697 7.3 -1.4°
Drops below altitude 10° 19:31:47 10° 99° (E) 2,047 9.1 -2.0°
Enters shadow 19:34:00 - 97° (E) 2,904 9.9 -2.3°
Sets 19:34:07 0° 97° (E) 2,951 - -2.3°
